Location: Airlie Beach - Cannonvale QLD, Australia
(20.2768°S, 148.7558°E)
Time: 12:56:21
(UTC+10:00)

N. Korean satellite - Visible Passes

Search period start: 19 September 2020 00:00
Search period end: 29 September 2020 00:00
Orbit: 455 x 503 km, 97.2° (Epoch: 18 September)

Date Brightness Start Highest point End Pass type
(mag) Time Alt. Az. Time Alt. Az. Time Alt. Az.
19 Sep 10.1 04:10:48 10° E 04:11:37 11° ESE 04:12:26 10° ESE visible
20 Sep 6.5 05:15:10 10° N 05:18:40 60° W 05:22:08 10° SSW visible
20 Sep 10.4 18:27:32 10° WSW 18:28:16 10° WSW 18:28:59 10° W visible
21 Sep 7.7 04:49:20 10° NNE 04:52:42 46° ESE 04:56:05 10° S visible
22 Sep 9.5 04:24:22 10° ENE 04:26:49 18° ESE 04:29:16 10° SSE visible
23 Sep 7.2 05:30:47 10° NNW 05:33:57 32° W 05:37:07 10° SW visible
24 Sep 6.5 05:04:28 10° NNE 05:07:58 87° ESE 05:11:28 10° S visible
25 Sep 8.6 04:38:56 10° NE 04:42:02 30° ESE 04:45:07 10° SSE visible
26 Sep 10.0 04:14:38 10° E 04:16:09 12° ESE 04:17:40 10° SE visible
27 Sep 6.7 05:19:50 10° N 05:23:12 48° W 05:26:35 10° SSW visible
28 Sep 7.2 04:53:50 10° NNE 04:57:14 56° ESE 05:00:38 10° S visible
